Location: Dumpton Point
(51.3500°N, 1.4433°E)
Time: 21:28:05
(UTC+00:00)

Vanguard 1 - Pass Details

Date: 01 October 2022
Orbit: 650 x 3831 km, 34.2° (Epoch: 03 December)

Event Time Altitude Azimuth Distance (km) Brightness Sun altitude
Rises 15:21:26 0° 240° (WSW) 6,654 16.0 18.5°
Reaches altitude 10° 15:27:18 10° 231° (SW) 5,066 15.9 17.7°
Maximum altitude 15:37:25 27° 181° (S) 2,799 12.9 16.3°
Drops below altitude 10° 15:43:53 10° 127° (SE) 3,143 12.4 15.4°
Sets 15:46:34 0° 114° (ESE) 3,796 12.7 15.0°
